Regional Weather Roundup
Issued by NWS Binghamton, NY

Home | Current Version | Previous Version | Text Only | Print | Product List | Glossary On
Versions: 1 2 3 4 5 6 7 8 9 10 11 12 13 14 15 16 17 18 19 20 21 22 23 24 25 26 27 28 29 30 31 32 33 34 35 36 37 38 39 40 41 42 43 44 45 46 47 48 49 50
000
ASUS41 KBGM 240810
RWRBGM

REGIONAL WEATHER ROUNDUP
NATIONAL WEATHER SERVICE BINGHAMTON NY
300 AM EST WED JAN 24 2018

Note: "fair" indicates few or no clouds below 12,000 feet with no
significant weather and/or obstructions to visibility.

* = Station(s) that does not report precipitation, such as rain,
snow, etc, also no thunder or fog.

NYZ009-015>018-022>025-036-037-044>046-055>057-062-240900
...Central New York...

CITY           SKY/WX    TMP DP  RH WIND       PRES   REMARKS
Binghamton     CLOUDY    31  21  66 NW24G31   29.74R WCI  17
Cortland       MIX PCPN  28  27  93 W6        29.79R WCI  22
Dansville      CLOUDY    29  20  69 NW15G22   29.89R WCI  18
Elmira         CLOUDY    33  25  72 W5G20     29.83R WCI  29
Seneca Falls   CLOUDY    28  25  86 NW14G20   29.87R WCI  17
Ithaca         FLURRIES  29  24  82 NW17G26   29.82R WCI  17
Hornell        CLOUDY    27  21  80 W22G29    29.89R WCI  12
Monticello     CLOUDY    36  26  67 W17G30    29.70R WCI  26
Penn Yan       LGT RAIN N/A N/A N/A W9        29.85R
Rome           MIX PCPN  29  25  85 W22G35    29.79R WCI  15
Sidney         CLOUDY    32  23  69 NW20G30   29.76R WCI  20
Syracuse       FLURRIES  28  25  88 W22G35    29.83R WCI  14
$$

PAZ038>040-043-044-047-048-072-240900
...Northeast Pennsylvania...

CITY           SKY/WX    TMP DP  RH WIND       PRES   REMARKS
Hazleton       CLOUDY    36  28  75 W12G21    29.80R WCI  27
Scranton       CLOUDY    38  31  76 W13       29.77R WCI  30
$$
&&
KEY
WCI = Wind Chill Index
VSB = Visibility
HX  = Heat Index
$$



USA.gov is the U.S. government's official web portal to all federal, state and local government web resources and services.